Location: Unspecified
(0.0000°N, 0.0000°E)
Time: 09:32:26
(UTC+00:00)

BlueWalker 3 - Pass Details

Date: 12 April 2024
Orbit: 485 x 495 km, 53.2° (Epoch: 19 April)

Event Time Altitude Azimuth Distance (km) Brightness Sun altitude
Rises 19:32:34 0° 217° (SW) 2,553 5.9 -22.7°
Reaches altitude 10° 19:34:45 10° 219° (SW) 1,673 4.9 -23.2°
Enters shadow 19:37:48 55° 239° (WSW) 593 2.4 -24.0°
